[[{"header":{"parameterUnit":"m.s-1","parameterCategory":1,"la1":30.2991,"la2":30.254,"lo1":-89.0895,"lo2":-89.0444,"dy":0.0017,"dx":0.0017,"nx":28,"ny":28,"refTime":"2023-09-18T09:00:00:Z","depth":0,"parameterNumber":2,"parameterNumberName":"U-component_of_WINDS"},"data":[0,0,0,0,0,0,0,0,0,0,0,0,0,0,0,0,0,0,0,0,0,0,0,0,0,0,0,0,0,0,0,0,0,0,0,0,0,0,0,0,0,0,0,0,0,0,0,0,0,0,0,0,0,0,0,0,0,0,-1.3907,-1.3907,0,-1.3932,-1.3932,-1.3932,-1.3866,-1.3864,-1.3862,-1.386,-1.3886,-1.3888,-1.3891,0,0,0,0,0,0,0,0,0,0,0,0,0,-1.3803,-1.3805,-1.3907,-1.3907,-1.3908,-1.3932,-1.3932,-1.3932,-1.3867,-1.3864,-1.3862,-1.3859,-1.3885,-1.3888,-1.3891,0,0,0,0,0,0,0,0,0,0,0,0,0,-1.384,-1.3806,-1.3907,-1.3878,-1.3875,-1.3932,-1.3932,-1.3933,-1.3867,-1.3864,-1.3861,-1.3858,-1.3884,-1.3888,-1.3892,-1.3977,0,0,-1.3904,-1.3905,0,0,0,0,0,0,0,0,-1.3838,-1.3844,-1.3882,-1.388,-1.3877,-1.3893,-1.3905,-1.3948,-1.3868,-1.387,-1.386,-1.3857,-1.3891,-1.3894,-1.3905,-1.3979,-1.398,-1.3904,-1.3906,-1.3908,-1.3909,0,0,0,0,0,0,0,-1.3836,-1.3842,-1.3917,-1.3882,-1.388,-1.3864,-1.3865,-1.3913,-1.3898,-1.387,-1.3865,-1.3869,-1.3889,-1.3902,-1.3905,-1.398,-1.3904,-1.3907,-1.391,-1.3911,-1.4126,-1.4129,0,0,0,0,0,0,-1.3837,-1.3841,-1.3916,-1.3917,-1.385,-1.3868,-1.387,-1.3891,-1.3897,-1.3895,-1.3872,-1.3866,-1.3897,-1.3901,-1.3906,-1.4008,-1.3908,-1.3912,-1.3914,-1.4123,-1.4127,-1.413,0,0,0,0,0,0,-1.3835,-1.3844,-1.3915,-1.3878,-1.3886,-1.3873,-1.3897,-1.3893,-1.3906,-1.3898,-1.3895,-1.3888,-1.3894,-1.3901,-1.396,-1.4008,-1.3913,-1.3917,-1.4119,-1.4124,-1.4129,-1.4212,0,0,0,0,0,0,-1.3832,-1.3844,-1.3876,-1.3879,-1.3888,-1.3969,-1.39,-1.3896,-1.3913,-1.3905,-1.3912,-1.391,-1.3892,-1.3955,-1.3964,-1.4012,-1.392,-1.4114,-1.4121,-1.4127,-1.4205,-1.422,-1.4232,0,0,0,0,0,-1.3829,-1.3898,-1.3878,-1.3888,-1.3928,-1.3972,-1.3977,-1.3955,-1.3917,-1.395,-1.3945,-1.391,-1.4001,-1.3962,-1.3972,-1.4021,-1.4111,-1.4119,-1.4127,-1.4199,-1.4217,-1.4232,0,0,0,0,0,0,-1.3901,-1.3898,-1.3876,-1.3949,-1.3961,-1.3961,-1.4001,-1.3974,-1.3998,-1.399,-1.3961,-1.3963,-1.4029,-1.403,-1.3987,-1.4105,-1.405,-1.406,-1.4102,-1.4118,-1.4131,-1.413,-1.3923,0,0,0,0,0,-1.3926,-1.3962,-1.3957,-1.4022,-1.4029,-1.4015,-1.4033,-1.4015,-1.4026,-1.4031,-1.4031,-1.4043,-1.4075,-1.4096,-1.4124,-1.4205,-1.4206,-1.4243,-1.4257,-1.4268,-1.4277,-1.4321,-1.4338,-1.4155,-1.4155,-1.4155,0,0,-1.3977,-1.398,-1.4004,-1.4037,-1.4044,-1.4082,-1.4019,-1.4062,-1.409,-1.4038,-1.4095,-1.4095,-1.4107,-1.4178,-1.4209,-1.4181,-1.4328,-1.4277,-1.4286,-1.429,-1.4331,-1.4348,-1.4363,-1.4161,-1.416,-1.4159,0,0,-1.409,-1.4095,-1.4151,-1.4159,-1.4172,-1.4161,-1.4175,-1.4179,-1.4177,-1.4234,-1.4195,-1.4228,-1.4282,-1.4293,-1.4306,-1.4424,-1.4393,-1.4433,-1.4504,-1.4547,-1.4561,-1.4574,-1.4618,-1.4634,-1.4442,-1.4443,-1.4443,0,-1.4152,-1.4208,-1.4182,-1.4228,-1.4244,-1.4198,-1.4254,-1.4264,-1.4285,-1.4297,-1.4266,-1.4334,-1.4339,-1.4412,-1.4441,-1.4452,-1.4467,-1.4433,-1.4561,-1.4574,-1.4585,-1.4627,-1.4643,-1.4448,-1.4447,-1.4447,-1.4446,0,-1.4285,-1.4325,-1.4368,-1.439,-1.441,-1.4461,-1.4443,-1.4467,-1.4447,-1.444,-1.4499,-1.4503,-1.4532,-1.4548,-1.4528,-1.4619,-1.4601,-1.4566,-1.4511,-1.4608,-1.4647,-1.4662,-1.4455,-1.4453,-1.4451,-1.445,0,0,-1.4446,-1.4453,-1.447,-1.448,-1.449,-1.452,-1.4569,-1.4597,-1.4619,-1.4635,-1.4676,-1.4723,-1.4691,-1.4705,-1.4686,-1.4724,-1.4819,-1.4684,-1.4684,-1.471,-1.4921,-1.4949,-1.4968,-1.4798,-1.4801,-1.4803,-1.492,0,-1.4559,-1.4644,-1.4622,-1.4706,-1.4743,-1.4699,-1.4742,-1.4753,-1.4748,-1.4778,-1.4772,-1.4807,-1.476,-1.4769,-1.4804,-1.48,-1.4861,-1.4791,-1.4837,-1.4839,-1.4838,-1.4988,-1.5017,-1.5128,-1.4935,-1.4938,-1.4939,0,-1.4703,-1.4725,-1.4813,-1.4818,-1.4833,-1.4872,-1.4897,-1.4926,-1.4938,-1.4931,-1.4948,-1.4922,-1.497,-1.4913,-1.498,-1.4933,-1.495,-1.4951,-1.4955,-1.496,-1.4897,-1.4999,-1.5163,-1.518,-1.4963,-1.4961,-1.4959,0,-1.4815,-1.4866,-1.4926,-1.4935,-1.4942,-1.4971,-1.4975,-1.4983,-1.5002,-1.5024,-1.5036,-1.5063,-1.5078,-1.5099,-1.5081,-1.5041,-1.5152,-1.5093,-1.5149,-1.515,-1.5176,-1.5175,-1.5348,-1.5184,-1.5184,-1.5183,-1.5183,0,-1.4945,-1.5001,-1.4976,-1.5013,-1.5075,-1.5049,-1.511,-1.5109,-1.5118,-1.5154,-1.5117,-1.5152,-1.5125,-1.5157,-1.5143,-1.5202,-1.5209,-1.5206,-1.5202,-1.521,-1.5211,-1.5223,-1.5216,-1.5188,-1.5187,-1.5186,-1.5185,0,-1.508,-1.5066,-1.5128,-1.513,-1.5131,-1.5177,-1.5178,-1.5213,-1.5204,-1.5251,-1.526,-1.5248,-1.5284,-1.5268,-1.5306,-1.5296,-1.5373,-1.5357,-1.5369,-1.5366,-1.5424,-1.542,-1.5612,-1.5637,-1.5455,-1.5457,-1.5458,0,-1.5166,-1.5208,-1.5214,-1.5236,-1.5243,-1.5278,-1.5297,-1.5273,-1.5295,-1.5311,-1.5344,-1.5377,-1.5403,-1.5464,-1.5458,-1.5487,-1.5474,-1.5539,-1.5478,-1.5486,-1.5477,-1.5476,-1.5481,-1.5552,-1.5554,-1.5556,-1.5557,0,-1.5319,-1.531,-1.5339,-1.5367,-1.5391,-1.5411,-1.5428,-1.5447,-1.5424,-1.545,-1.5487,-1.5507,-1.5546,-1.558,-1.5606,-1.561,-1.5581,-1.5576,-1.5591,-1.5602,-1.5608,-1.5608,-1.5405,-1.5572,-1.5571,-1.557,-1.5569,-1.5568,-1.5434,-1.547,-1.548,-1.5514,-1.5524,-1.5541,-1.5574,-1.557,-1.5601,-1.5631,-1.5614,-1.5658,-1.5669,-1.5701,-1.5709,-1.5743,-1.5717,-1.5739,-1.5745,-1.5751,-1.576,-1.56,-1.5747,-1.5747,-1.5746,-1.5746,-1.5746,0,-1.5587,-1.5592,-1.5623,-1.5648,-1.5676,-1.5644,-1.5661,-1.5686,-1.5726,-1.5738,-1.5764,-1.5807,-1.584,-1.5837,-1.5867,-1.5896,-1.5883,-1.5905,-1.5904,-1.5905,-1.578,-1.5765,-1.5915,-1.5915,-1.5914,-1.5914,-1.5914,-1.5914,-1.5671,-1.5731,-1.5723,-1.5788,-1.5791,-1.5835,-1.5847,-1.5863,-1.5873,-1.5923,-1.5951,-1.5948,-1.5955,-1.5985,-1.6014,-1.6012,-1.6026,-1.6054,-1.6047,-1.5931,-1.5914,-1.5898,-1.5884,-1.6056,-1.6057,-1.617,-1.6171,-1.6172]},{"header":{"parameterUnit":"m.s-1","parameterCategory":1,"la1":30.2991,"la2":30.254,"lo1":-89.0895,"lo2":-89.0444,"dy":0.0017,"dx":0.0017,"nx":28,"ny":28,"refTime":"2023-09-18T09:00:00:Z","depth":0,"parameterNumber":3,"parameterNumberName":"V-component_of_WINDS"},"data":[0,0,0,0,0,0,0,0,0,0,0,0,0,0,0,0,0,0,0,0,0,0,0,0,0,0,0,0,0,0,0,0,0,0,0,0,0,0,0,0,0,0,0,0,0,0,0,0,0,0,0,0,0,0,0,0,0,0,-3.636,-3.636,0,-3.6416,-3.6416,-3.6417,-3.637,-3.6368,-3.6366,-3.6364,-3.6419,-3.6422,-3.6425,0,0,0,0,0,0,0,0,0,0,0,0,0,-3.6208,-3.6211,-3.636,-3.636,-3.6361,-3.6416,-3.6416,-3.6417,-3.637,-3.6368,-3.6365,-3.6363,-3.6417,-3.6421,-3.6425,0,0,0,0,0,0,0,0,0,0,0,0,0,-3.627,-3.6212,-3.6359,-3.6344,-3.6343,-3.6416,-3.6417,-3.6417,-3.6371,-3.6368,-3.6365,-3.6362,-3.6416,-3.6421,-3.6426,-3.6515,0,0,-3.6441,-3.6443,0,0,0,0,0,0,0,0,-3.6267,-3.6276,-3.6346,-3.6345,-3.6345,-3.6383,-3.6383,-3.645,-3.6371,-3.636,-3.6364,-3.636,-3.6409,-3.6414,-3.6431,-3.6518,-3.652,-3.6441,-3.6444,-3.6446,-3.6448,0,0,0,0,0,0,0,-3.6263,-3.6273,-3.6382,-3.6347,-3.6346,-3.6333,-3.6339,-3.6396,-3.64,-3.6361,-3.6358,-3.6365,-3.6408,-3.6426,-3.6432,-3.6521,-3.6441,-3.6446,-3.6449,-3.6451,-3.6683,-3.6686,0,0,0,0,0,0,-3.626,-3.627,-3.638,-3.6383,-3.6298,-3.6339,-3.6345,-3.6373,-3.64,-3.6401,-3.6368,-3.6363,-3.6419,-3.6426,-3.6434,-3.6539,-3.6446,-3.6451,-3.6454,-3.6679,-3.6683,-3.6687,0,0,0,0,0,0,-3.6257,-3.6271,-3.6378,-3.6326,-3.6338,-3.6344,-3.6377,-3.6376,-3.6395,-3.6405,-3.6405,-3.6386,-3.6417,-3.6427,-3.6495,-3.654,-3.6453,-3.6458,-3.6676,-3.6681,-3.6685,-3.6752,0,0,0,0,0,0,-3.6253,-3.627,-3.6304,-3.6327,-3.6341,-3.6439,-3.638,-3.6379,-3.6404,-3.6398,-3.6422,-3.6423,-3.6416,-3.6488,-3.65,-3.6546,-3.6462,-3.6672,-3.6678,-3.6684,-3.6745,-3.6758,-3.6769,0,0,0,0,0,-3.6248,-3.6321,-3.6306,-3.632,-3.6385,-3.6442,-3.645,-3.6442,-3.6407,-3.6442,-3.6448,-3.6422,-3.6534,-3.6496,-3.6509,-3.6556,-3.6669,-3.6676,-3.6683,-3.674,-3.6756,-3.6769,0,0,0,0,0,0,-3.6302,-3.6323,-3.6308,-3.639,-3.6415,-3.6434,-3.6477,-3.6458,-3.6492,-3.6485,-3.6472,-3.6478,-3.655,-3.656,-3.6517,-3.6644,-3.6596,-3.6606,-3.6634,-3.6649,-3.6661,-3.6656,-3.6466,0,0,0,0,0,-3.6324,-3.637,-3.6385,-3.6456,-3.6469,-3.6471,-3.6496,-3.6487,-3.6512,-3.6521,-3.6533,-3.6557,-3.6597,-3.6624,-3.6662,-3.6747,-3.6751,-3.6786,-3.6798,-3.6808,-3.6816,-3.6861,-3.6876,-3.671,-3.671,-3.671,0,0,-3.6369,-3.6386,-3.6415,-3.6468,-3.6486,-3.6532,-3.648,-3.6532,-3.6565,-3.6529,-3.6594,-3.6604,-3.6629,-3.6706,-3.6741,-3.6717,-3.6863,-3.6817,-3.6824,-3.6828,-3.687,-3.6886,-3.69,-3.6715,-3.6714,-3.6714,0,0,-3.6474,-3.6493,-3.6554,-3.6573,-3.6601,-3.6602,-3.6617,-3.6639,-3.6644,-3.671,-3.6683,-3.6722,-3.6793,-3.6812,-3.6831,-3.6944,-3.6921,-3.6957,-3.7018,-3.7062,-3.7075,-3.7086,-3.7125,-3.714,-3.6965,-3.6966,-3.6966,0,-3.6527,-3.6596,-3.6587,-3.664,-3.6663,-3.6634,-3.6694,-3.6713,-3.6752,-3.6768,-3.6741,-3.6829,-3.6844,-3.6924,-3.6952,-3.6969,-3.6984,-3.6953,-3.7074,-3.7085,-3.7096,-3.7133,-3.7148,-3.697,-3.6969,-3.6969,-3.6968,0,-3.6658,-3.6707,-3.6753,-3.6792,-3.682,-3.6877,-3.6875,-3.6905,-3.6894,-3.6897,-3.6964,-3.6981,-3.7022,-3.704,-3.703,-3.712,-3.7104,-3.7076,-3.7027,-3.7116,-3.715,-3.7165,-3.6975,-3.6974,-3.6973,-3.6972,0,0,-3.6799,-3.6833,-3.6849,-3.6866,-3.6896,-3.6932,-3.6988,-3.7028,-3.7053,-3.7081,-3.7126,-3.7186,-3.716,-3.7182,-3.7173,-3.7212,-3.7299,-3.7179,-3.7179,-3.72,-3.7398,-3.7418,-3.7435,-3.7284,-3.7287,-3.7289,-3.7395,0,-3.6905,-3.7002,-3.6995,-3.7085,-3.713,-3.7102,-3.715,-3.7172,-3.7177,-3.7214,-3.7219,-3.7261,-3.7225,-3.7237,-3.7275,-3.7281,-3.7338,-3.7273,-3.7325,-3.7327,-3.7318,-3.7453,-3.7474,-3.7574,-3.7409,-3.7411,-3.7413,0,-3.7041,-3.7074,-3.717,-3.7192,-3.721,-3.7253,-3.7289,-3.7326,-3.7351,-3.7351,-3.7376,-3.736,-3.7415,-3.7366,-3.744,-3.7395,-3.7416,-3.7422,-3.7426,-3.7429,-3.7374,-3.7459,-3.7605,-3.762,-3.7434,-3.7432,-3.7431,0,-3.7133,-3.7202,-3.7267,-3.7283,-3.7311,-3.7341,-3.7354,-3.7376,-3.7401,-3.7432,-3.7447,-3.7485,-3.7505,-3.7534,-3.7528,-3.7493,-3.7603,-3.7554,-3.7604,-3.7604,-3.7628,-3.7626,-3.7778,-3.7643,-3.7643,-3.7643,-3.7643,0,-3.7251,-3.731,-3.7309,-3.7349,-3.7414,-3.7405,-3.747,-3.7479,-3.7498,-3.7539,-3.7518,-3.7556,-3.7547,-3.7585,-3.7582,-3.7643,-3.7652,-3.7653,-3.7651,-3.7655,-3.7655,-3.7667,-3.766,-3.7647,-3.7646,-3.7645,-3.7644,0,-3.7364,-3.7366,-3.7435,-3.7456,-3.7462,-3.7509,-3.7526,-3.7564,-3.7567,-3.7619,-3.7631,-3.7635,-3.7679,-3.7677,-3.7726,-3.7723,-3.7799,-3.7789,-3.7791,-3.7788,-3.7838,-3.7833,-3.8003,-3.8024,-3.7876,-3.7878,-3.7879,0,-3.7439,-3.7483,-3.7509,-3.7535,-3.755,-3.7593,-3.7618,-3.7611,-3.7638,-3.7669,-3.7703,-3.7745,-3.7778,-3.7849,-3.7856,-3.7893,-3.7883,-3.794,-3.7889,-3.7891,-3.7883,-3.788,-3.7884,-3.795,-3.7952,-3.7953,-3.7954,0,-3.7571,-3.7569,-3.7607,-3.7645,-3.7676,-3.7706,-3.7732,-3.7755,-3.7751,-3.7782,-3.7827,-3.7852,-3.7903,-3.7944,-3.798,-3.7992,-3.7972,-3.7971,-3.7984,-3.7987,-3.7986,-3.7986,-3.7817,-3.7966,-3.7965,-3.7964,-3.7964,-3.7963,-3.7666,-3.7704,-3.7729,-3.7771,-3.7791,-3.7816,-3.7853,-3.7861,-3.7898,-3.7939,-3.7933,-3.7983,-3.8005,-3.8051,-3.8067,-3.8105,-3.8084,-3.8104,-3.8109,-3.8113,-3.8119,-3.7981,-3.8111,-3.8111,-3.8111,-3.811,-3.811,0,-3.7796,-3.781,-3.785,-3.7888,-3.7922,-3.7902,-3.793,-3.7959,-3.8003,-3.8027,-3.806,-3.8111,-3.8151,-3.8162,-3.82,-3.8228,-3.822,-3.8238,-3.8235,-3.8238,-3.8135,-3.8119,-3.8244,-3.8244,-3.8244,-3.8244,-3.8244,-3.8244,-3.7868,-3.7931,-3.7933,-3.8005,-3.8019,-3.8068,-3.8086,-3.8109,-3.8128,-3.8186,-3.822,-3.8227,-3.8245,-3.8284,-3.832,-3.8321,-3.8336,-3.8358,-3.8356,-3.8259,-3.8246,-3.8233,-3.8218,-3.8361,-3.8361,-3.8456,-3.8457,-3.8457]}]]